Tapachula Airport, Mexico

10:58 AM CST on January 22, 2018 (GMT -0600)
Tapachula International

Weather History for MMTP - January, 2013

Change the Weather History Date:

Sunday, January 6, 2013

  Actual Average Record
Temperature  
Mean Temperature 81 °F -  
Max Temperature 89 °F 86 °F 93 °F (2007)
Min Temperature 73 °F 71 °F 68 °F (2009)
Cooling Degree Days 16    
Growing Degree Days 31 (Base 50)    
Moisture  
Dew Point 73 °F    
Average Humidity 77    
Maximum Humidity 89    
Minimum Humidity 55    
Precipitation  
Precipitation 0.00 in - - ()
Sea Level Pressure  
Sea Level Pressure 29.88 in    
Wind  
Wind Speed 1 mph ()    
Max Wind Speed 12 mph    
Max Gust Speed -    
Visibility 10.0 miles    
Events      
Averages and records for this station are not official NWS values.
T = Trace of Precipitation, MM = Missing Value Source: Averaged Metar Reports

Daily Weather History Graph

Daily Weather History Graph

Search for Another Location

Airport or City:

Trip Planner

Search our weather history database for the weather conditions in past years. The results will help you decide how hot, cold, wet, or windy it might be!

Date:

Astronomy

Jan. 06, 2013 Rise Set
Actual Time 6:36 AM CST 5:53 PM CST
Civil Twilight 6:13 AM CST 6:17 PM CST
Nautical Twilight 5:46 AM CST 6:43 PM CST
Astronomical Twilight 5:20 AM CST 7:10 PM CST
Moon 1:12 AM CST (1/6) 1:05 PM CST (1/6)
Length of Visible Light 12h 03m
Length of Day
11h 17m
Waning Crescent, 33% of the Moon is Illuminated
Jan 6
Waning Crescent
Jan 11
New
Jan 18
First Quarter
Jan 26
Full
Feb 3
Last Quarter

Hourly Weather History & Observations

Time (CST) Temp. Heat Index Dew Point Humidity Pressure Visibility Wind Dir Wind Speed Gust Speed Precip Events Conditions
12:40 AM 77.0 °F - 73.4 °F 89% 29.91 in 10.0 mi Calm Calm - N/A   Clear
1:40 AM 77.0 °F - 73.4 °F 89% 29.90 in 10.0 mi Calm Calm - N/A   Clear
2:40 AM 75.2 °F - 71.6 °F 89% 29.84 in 10.0 mi Calm Calm - N/A   Clear
3:40 AM 75.2 °F - 71.6 °F 89% 29.89 in 10.0 mi Calm Calm - N/A   Clear
4:40 AM 75.2 °F - 71.6 °F 89% 29.89 in 10.0 mi NE 5.8 mph - N/A   Clear
5:40 AM 73.4 °F - 69.8 °F 88% 29.85 in 10.0 mi Calm Calm - N/A   Clear
6:40 AM 75.2 °F - 69.8 °F 83% 29.92 in 10.0 mi NE 8.1 mph - N/A   Scattered Clouds
7:40 AM 77.0 °F - 71.6 °F 83% 29.94 in 10.0 mi Calm Calm - N/A   Clear
8:40 AM 80.6 °F 84.6 °F 71.6 °F 74% 29.83 in 10.0 mi Calm Calm - N/A   Clear
9:40 AM 87.8 °F 93.8 °F 71.6 °F 58% 29.95 in 10.0 mi Calm Calm - N/A   Clear
10:40 AM 87.8 °F 93.8 °F 71.6 °F 58% 29.94 in 10.0 mi Calm Calm - N/A   Clear
11:40 AM 89.6 °F 96.2 °F 71.6 °F 55% 29.86 in 10.0 mi Calm Calm - N/A   Clear
12:40 PM 89.6 °F 96.2 °F 71.6 °F 55% 29.90 in 10.0 mi Calm Calm - N/A   Partly Cloudy
1:40 PM 89.6 °F 96.2 °F 71.6 °F 55% 29.86 in 10.0 mi Calm Calm - N/A   Partly Cloudy
2:40 PM 89.6 °F 96.2 °F 71.6 °F 55% 29.86 in 10.0 mi Calm Calm - N/A   Partly Cloudy
3:40 PM 89.6 °F 96.2 °F 71.6 °F 55% 29.83 in 10.0 mi SSW 11.5 mph - N/A   Partly Cloudy
4:50 PM 75.2 °F - 71.6 °F 89% 29.89 in 10.0 mi Calm Calm - N/A   Clear
5:43 PM 82.4 °F 89.5 °F 75.2 °F 79% 29.83 in 10.0 mi SSW 11.5 mph - N/A   Partly Cloudy
6:40 PM 82.4 °F 90.9 °F 77.0 °F 84% 29.85 in 10.0 mi Calm Calm - N/A   Partly Cloudy
7:42 PM 80.6 °F 87.1 °F 77.0 °F 89% 29.87 in 10.0 mi Calm Calm - N/A   Partly Cloudy
8:41 PM 80.6 °F 87.1 °F 77.0 °F 89% 29.86 in 10.0 mi Calm Calm - N/A   Partly Cloudy
9:40 PM 80.6 °F 86.2 °F 75.2 °F 84% 29.90 in 10.0 mi Calm Calm - N/A   Partly Cloudy
10:40 PM 78.8 °F - 75.2 °F 89% 29.90 in 10.0 mi Calm Calm - N/A   Partly Cloudy
11:42 PM 77.0 °F - 73.4 °F 89% 29.88 in 10.0 mi Calm Calm - N/A   Partly Cloudy